Location: ??
(35.5052°N, 139.7262°E)
Time: 18:24:24
(UTC+00:00)

Cosmos 1908 - Pass Details

Date: 20 June 2021
Orbit: 509 x 530 km, 82.5° (Epoch: 29 July)

Event Time Altitude Azimuth Distance (km) Brightness Sun altitude
Rises 11:58:38 0° 351° (N) 2,657 7.8 -19.4°
Reaches altitude 10° 12:00:48 10° 349° (N) 1,761 6.8 -19.7°
Maximum altitude 12:04:38 73° 265° (W) 546 3.3 -20.2°
Enters shadow 12:05:29 51° 198° (SSW) 657 3.4 -20.3°
